Regional Weather Roundup
Issued by NWS Cleveland, OH

Home | Current Version | Previous Version | Graphics & Text | Print | Product List | Glossary On
Versions: 1 2 3 4 5 6 7 8 9 10 11 12 13 14 15 16 17 18 19 20 21 22 23 24 25 26 27 28 29 30 31 32 33 34 35 36 37 38 39 40 41 42 43 44 45 46 47 48 49 50
000
ASUS41 KCLE 250812
RWRCLE
OHIO REGIONAL WEATHER ROUNDUP
NATIONAL WEATHER SERVICE WILMINGTON, OH
300 AM EST SAT FEB 25 2017

NOTE: "FAIR" INDICATES FEW OR NO CLOUDS BELOW 12,000 FEET WITH NO
SIGNIFICANT WEATHER AND/OR OBSTRUCTIONS TO VISIBILITY.

OHZ001>008-015>018-024>027-034-035-043-044-250900-
   NORTHWEST OHIO

CITY           SKY/WX    TMP DP  RH WIND       PRES   REMARKS
DEFIANCE       CLOUDY    41  34  76 SW8       29.60R
FINDLAY        CLOUDY    44  35  70 W17       29.57F
TOLEDO EXPRESS CLOUDY    43  39  86 W15       29.57R
TOLEDO EXEC    CLOUDY    46  40  79 W17G25    29.56F
LIMA           FAIR      42  36  79 W13       29.59F
$$

OHZ009>014-019>023-028>033-038-089-250900-
   NORTHEAST OHIO

CITY           SKY/WX    TMP DP  RH WIND       PRES   REMARKS
CLE-HOPKINS    CLOUDY    55  47  74 W13       29.55R
CLE-LAKEFRONT  CLOUDY    55  49  80 SW13      29.52R
CUY CO. ARPT   NOT AVBL
LORAIN-ELYRIA  CLOUDY    51  43  74 W15G24    29.55R
ASHTABULA      LGT RAIN  56  55  97 S9        29.52F
AKRON-CANTON   LGT RAIN  56  53  90 S9        29.54F FOG
WOOSTER        CLOUDY    53  45  74 W7        29.55S
MANSFIELD      MOCLDY    47  41  80 W12G21    29.57R
YOUNGSTOWN     LGT RAIN  56  53  90 S8        29.56F FOG
$$

OHZ042-051>053-060>062-070>072-077>081-250900-
  SOUTHWEST OHIO

CITY           SKY/WX    TMP DP  RH WIND       PRES   REMARKS
CINC-COVINGTON CLOUDY    47  39  74 NW13      29.65S
CINC-LUNKEN    CLOUDY    50  41  71 VRB6      29.66F
HAMILTON       CLOUDY    47  36  65 W14G24    29.66S
DAYTON         CLOUDY    44  38  79 W9        29.63S
WRIGHT-PAT AFB CLOUDY    46  39  78 W7        29.63R
DAYTON GENERAL CLOUDY    47  41  80 W7        29.63F
WILMINGTON     CLOUDY    47  41  80 W10       29.62S
$$

OHZ036-037-039>041-045>050-054>059-063>069-073>076-082>088-250900-
  CENTRAL AND SOUTHEAST OHIO

CITY           SKY/WX    TMP DP  RH WIND       PRES   REMARKS
COLUMBUS       CLOUDY    52  46  80 NW20      29.59S
OSU AIRPORT    CLOUDY    47  42  83 NW14      29.60R
BOLTON FIELD   CLOUDY    48  43  84 NW13      29.61S
RICKENBACK AFB CLOUDY    51  48  89 NW13      29.60R
NEWARK         LGT RAIN  53  49  86 W3        29.58S
MARION         FAIR      46  39  76 W14G21    29.60R
LANCASTER      CLOUDY    53  49  86 W8        29.61S
ZANESVILLE     LGT RAIN  57  54  89 W10G22    29.58F
NEW PHILLY     CLOUDY    56  55  97 SW7       29.57S
$$




USA.gov is the U.S. government's official web portal to all federal, state and local government web resources and services.